Helicity
118 110 105 135 141 201 133 66 75 90 118 65 72 87 54 61 73 83 41 78 129 163 78 69 56 55 89 132 156 153 148 177 221 234 244 237 221 225 225 216 162 124 109 114 126 137 129 133 160
146 159 187 181 199 185 103 58 47 68 106 53 42 82 76 50 32 46 98 43 102 134 79 59 71 78 101 156 174 162 135 144 165 208 246 245 238 240 250 245 201 190 149 118 126 131 131 150 169
171 186 209 222 211 186 99 62 45 73 144 77 87 43 63 51 27 36 34 48 85 94 87 55 83 85 113 167 181 163 135 138 156 177 214 224 238 255 250 245 233 199 152 125 128 137 163 195 183
178 230 249 258 189 116 68 73 73 105 104 83 99 126 40 5 19 28 65 49 67 63 55 60 92 100 115 147 178 170 144 122 157 158 178 206 231 237 253 280 229 177 168 112 135 150 207 224 190
233 242 277 242 196 217 62 21 42 57 44 33 52 55 68 12 31 68 81 79 73 92 70 75 93 104 120 144 160 163 145 140 135 157 162 185 216 238 213 210 180 155 142 141 205 215 213 216 190
262 252 233 143 169 143 34 19 55 33 18 31 44 69 42 44 67 86 104 111 83 120 97 91 112 102 138 145 148 131 120 134 117 142 174 201 207 180 204 158 117 127 140 179 228 242 234 212 196
229 247 158 115 104 113 34 21 25 19 53 92 27 100 92 59 92 123 134 143 105 102 98 117 136 110 125 149 110 71 76 65 83 65 64 77 60 95 104 113 96 103 146 202 218 241 223 179 191
216 207 165 121 102 80 67 43 56 29 85 76 43 106 110 57 121 166 199 146 100 93 98 123 132 109 112 100 98 93 54 56 63 127 192 207 272 146 56 95 126 96 163 186 203 201 199 173 170
244 205 147 166 123 129 64 45 46 101 91 87 79 95 65 61 104 130 213 167 123 125 115 140 111 111 108 90 90 116 105 88 178 209 219 231 205 275 217 166 96 82 118 184 206 188 195 174 157
235 226 167 155 132 101 70 62 44 52 70 56 18 23 30 2 76 75 129 146 124 149 138 144 115 111 100 83 85 121 103 104 154 208 231 234 230 202 295 164 105 82 190 198 161 172 189 124 107
216 191 157 163 98 84 70 35 35 15 37 -12 33 -9 45 40 43 65 68 62 92 136 155 147 137 117 103 106 125 129 149 167 197 256 253 219 224 200 197 195 32 115 102 137 123 119 120 100 94
182 143 129 108 67 57 60 57 -23 -18 15 -52 -71 -24 62 69 60 43 67 90 73 128 142 160 142 129 95 131 154 167 173 199 199 250 268 260 240 217 78 173 144 161 160 107 93 103 94 97 78
120 102 91 82 50 39 33 22 -11 -28 19 -48 -34 -23 20 70 59 24 45 92 115 104 148 151 130 135 92 128 149 184 198 230 232 227 198 242 248 233 188 152 136 216 207 124 122 105 97 96 96
63 50 66 66 34 31 36 32 77 -23 -3 -7 12 -13 -9 53 52 22 50 61 107 119 145 153 131 136 103 116 121 168 216 258 237 207 170 222 218 222 229 143 147 222 222 160 125 95 75 86 87
62 53 81 44 47 84 49 54 51 21 -8 -1 15 6 11 52 54 74 45 79 124 137 155 150 162 133 115 96 97 157 239 231 193 173 155 155 191 213 198 173 200 254 199 135 133 94 72 91 78
61 42 56 80 51 43 93 62 6 26 25 14 7 -11 5 63 79 42 12 34 123 152 156 151 162 148 119 71 80 123 211 191 158 143 158 169 216 184 190 191 209 183 191 194 160 112 82 84 77
75 79 58 56 44 74 95 75 15 31 45 19 5 27 64 78 87 50 45 61 137 149 167 181 146 172 114 94 94 100 160 122 108 113 163 211 164 193 211 221 224 205 176 196 176 99 83 91 87
30 38 46 61 92 103 88 50 31 34 21 -10 7 60 112 112 112 57 57 92 152 173 193 196 171 174 143 137 127 144 123 80 67 72 97 78 177 150 255 218 219 271 184 187 166 122 100 89 102
52 41 37 33 41 42 19 19 48 32 -24 -21 64 91 112 103 97 67 74 130 193 215 226 209 202 186 182 146 151 148 128 56 51 59 38 79 98 123 270 301 228 167 136 156 201 169 155 130 115
44 36 37 16 -8 25 21 8 31 -10 -53 0 83 111 82 85 90 47 60 95 187 259 252 213 199 193 163 124 148 133 125 27 23 14 14 17 131 186 336 307 252 140 123 119 168 198 155 147 116
45 33 36 11 29 19 19 -6 30 6 -33 26 -3 44 68 69 89 32 78 109 167 244 261 238 207 178 155 138 131 144 112 45 42 47 83 129 190 279 218 214 173 133 145 172 177 207 181 197 148
54 8 -14 -2 6 33 71 74 139 81 77 52 70 79 49 56 60 60 60 71 134 196 213 196 198 184 153 140 152 143 107 73 15 51 59 108 97 99 184 154 163 136 150 150 167 186 194 231 164
30 22 -20 -3 -5 17 39 87 71 50 83 45 57 36 53 37 37 29 -18 26 95 158 194 201 172 180 161 116 135 107 69 30 33 -3 40 65 120 75 79 128 160 120 112 152 172 183 187 163 204
51 26 12 -13 23 30 9 65 30 -1 35 122 152 123 110 96 45 46 21 64 93 119 168 192 193 170 158 115 103 101 86 79 73 51 24 56 80 104 114 126 164 156 184 148 171 165 177 194 177
37 49 36 3 29 51 51 39 37 16 84 89 139 188 155 133 78 103 84 59 87 125 178 188 168 163 145 107 92 98 89 73 64 50 47 52 76 55 138 110 152 138 197 175 188 185 206 214 229
49 60 57 29 15 13 55 38 65 47 85 56 103 141 140 137 62 99 71 66 86 114 155 173 191 154 111 81 78 72 64 50 33 42 47 49 58 10 72 160 153 168 221 121 150 201 200 226 237
40 37 59 57 53 49 74 49 38 68 103 145 102 114 129 99 107 60 51 66 75 108 114 136 149 139 82 45 49 62 55 42 31 31 32 40 49 51 -45 33 119 142 143 144 152 184 229 285 261
58 54 64 62 63 56 46 43 107 45 84 22 26 74 130 124 133 91 74 86 65 114 105 108 97 103 85 54 36 42 44 31 22 20 20 32 36 28 -1 -20 51 121 159 116 179 153 196 298 314
57 83 52 52 66 71 99 20 50 37 21 9 50 82 131 228 177 138 96 91 94 130 106 94 106 116 93 68 52 46 36 28 20 18 24 36 36 31 21 4 24 44 85 108 162 118 134 154 125
41 50 53 77 54 33 42 -20 4 43 46 13 3 77 137 179 255 280 101 132 196 192 152 124 139 148 129 109 86 63 49 37 23 13 7 6 21 39 45 48 46 59 57 54 67 81 94 136 162
Wind_Speed
18 17 22 27 35 35 36 34 34 27 33 26 24 19 15 24 20 31 27 18 19 17 14 10 8 7 7 5 4 4 7 13 17 19 21 21 19 19 19 17 14 11 10 10 8 8 9 12 15
13 17 24 32 36 38 37 37 32 25 32 36 24 23 22 20 17 23 19 17 19 18 15 11 8 8 7 5 6 5 8 12 17 21 22 20 20 20 22 23 18 14 9 8 4 5 7 12 15
16 22 28 34 37 33 40 34 27 25 40 34 31 23 22 22 16 12 17 14 16 17 15 12 10 9 7 7 6 6 10 13 16 20 23 23 20 19 19 21 20 13 9 8 5 6 8 12 13
22 28 35 42 39 31 32 33 23 29 36 34 37 36 23 15 17 10 15 10 14 16 16 12 7 7 5 3 4 6 10 12 15 19 22 23 24 23 19 21 19 15 9 8 6 9 12 11 11
29 33 46 49 47 42 38 33 34 42 46 47 46 39 29 16 18 16 11 8 11 16 19 15 9 7 7 3 2 5 7 9 13 19 22 23 23 22 22 18 17 14 9 9 9 12 12 14 8
35 38 54 52 53 49 47 39 41 44 48 51 49 40 32 20 15 14 9 10 13 16 20 19 11 9 9 6 3 7 8 10 13 19 21 25 26 25 20 16 14 13 12 10 12 13 12 10 9
42 46 57 58 56 53 45 36 40 46 44 42 40 41 33 20 19 11 9 13 15 18 19 21 16 10 11 6 4 8 9 11 12 16 18 18 11 17 15 14 13 11 12 13 13 13 13 11 10
42 48 56 54 58 61 44 40 37 32 38 38 34 42 40 32 14 9 10 16 16 21 22 23 20 15 14 10 8 7 8 11 10 8 7 14 5 23 8 13 16 12 14 18 16 14 14 12 11
32 57 63 59 57 54 40 42 38 35 40 39 37 46 35 29 10 6 6 16 14 19 22 24 20 18 17 14 16 5 6 11 7 7 9 8 9 13 25 33 17 19 17 20 19 16 15 13 11
40 51 57 58 54 56 47 46 47 45 47 49 51 35 34 23 11 13 12 14 15 16 21 22 19 21 18 19 16 5 2 7 8 9 11 11 9 8 12 36 24 27 19 25 26 18 17 14 12
45 59 57 55 51 51 54 57 53 54 60 50 52 45 40 28 15 14 17 22 16 13 21 21 18 20 20 20 13 10 5 0 3 9 14 15 12 10 14 31 40 22 25 18 25 27 15 18 15
61 52 53 58 59 60 59 59 61 57 53 44 44 48 47 35 23 19 20 21 16 13 18 19 17 19 22 24 18 9 4 1 3 7 11 13 12 10 12 28 29 24 28 21 23 20 13 21 16
63 63 59 61 62 59 60 57 59 65 49 42 48 49 44 40 30 20 23 23 15 15 15 18 15 19 24 25 21 11 8 3 2 6 12 13 14 17 22 30 26 25 36 23 23 16 14 19 18
49 53 57 57 60 60 61 60 55 51 43 45 48 45 46 44 36 27 19 20 18 18 14 14 13 19 23 23 20 16 11 7 6 9 18 16 18 21 24 17 26 37 44 33 21 18 18 17 17
54 66 65 59 54 56 53 61 51 43 43 43 42 40 52 57 46 20 18 18 16 14 12 11 13 16 21 23 19 17 12 6 6 7 13 20 19 22 27 24 24 31 42 32 22 18 15 18 16
60 62 65 48 50 50 44 66 52 43 37 37 34 37 48 63 51 43 32 18 17 17 15 11 14 13 21 22 21 18 10 4 2 6 13 17 20 26 25 30 30 37 39 35 27 21 17 16 16
57 68 61 66 55 58 49 67 54 38 36 33 33 38 54 64 60 51 29 20 18 18 15 12 7 12 15 20 19 18 10 4 3 4 7 16 26 23 22 27 35 37 38 35 29 19 22 23 23
64 60 58 60 52 58 66 72 64 51 49 44 46 57 67 76 80 59 35 24 24 17 13 6 8 10 11 15 16 17 12 7 3 1 3 18 32 29 25 29 33 36 39 38 27 21 30 28 24
69 70 76 74 69 79 84 86 74 59 47 44 62 72 79 84 79 65 40 27 22 18 14 7 4 4 8 11 15 14 11 6 4 3 7 6 22 33 34 37 29 35 40 32 29 24 28 25 21
64 73 80 74 66 67 78 89 63 50 47 49 79 81 82 83 80 71 46 25 21 18 14 10 4 10 9 10 12 17 11 11 14 9 11 7 12 34 35 34 34 42 38 27 30 26 23 24 20
61 66 73 76 75 75 84 100 43 35 34 72 82 83 81 80 79 76 54 24 23 20 18 13 8 15 9 9 11 16 14 14 11 10 12 16 11 29 32 23 36 36 29 30 33 29 25 23 22
56 51 59 66 63 59 46 72 55 45 65 73 74 71 80 78 75 70 43 30 24 19 15 12 8 12 9 8 9 12 13 18 26 18 10 15 19 8 25 36 34 39 39 33 35 31 26 26 23
54 54 59 61 62 65 56 57 51 35 55 46 59 71 72 71 65 61 23 33 28 17 16 12 8 8 6 7 8 12 15 20 21 28 21 13 9 13 11 25 29 32 32 31 29 30 28 24 24
51 57 61 53 54 59 48 26 42 44 45 47 43 54 57 59 61 55 39 34 22 14 14 14 10 4 7 6 8 13 15 16 17 25 31 15 6 6 14 15 24 31 32 31 29 28 32 28 24
52 51 51 49 46 52 48 29 34 59 53 46 49 55 55 55 54 43 38 23 18 20 17 14 11 6 7 7 8 9 12 14 15 19 21 24 11 4 13 19 21 27 31 35 35 28 29 32 33
39 37 43 53 49 50 42 39 43 45 42 42 44 52 55 55 59 58 43 27 19 18 17 16 11 5 10 14 10 7 9 11 14 13 13 15 15 13 11 14 19 19 26 28 30 30 27 30 35
39 41 42 50 51 55 42 40 38 48 43 45 47 48 53 57 59 60 42 35 22 19 19 17 12 3 9 18 21 11 8 9 10 12 14 13 14 17 24 22 12 17 19 27 28 34 30 30 32
43 35 40 36 45 46 43 43 56 51 52 49 48 51 49 48 47 42 37 30 23 19 19 16 11 2 6 12 15 12 10 10 10 13 17 20 18 18 24 31 21 15 17 17 23 31 33 30 32
38 39 37 37 38 42 43 41 40 40 41 39 41 42 43 41 42 37 35 28 25 20 18 15 10 4 4 5 7 8 10 10 11 11 13 19 23 20 16 19 21 22 23 18 12 17 25 30 34
42 41 35 39 38 37 47 57 34 37 33 32 34 37 33 30 28 29 23 19 18 19 18 16 9 6 8 10 13 16 17 14 12 10 11 12 17 22 21 15 10 12 14 16 15 12 13 20 29
Wind_Direction
319 334 337 331 319 321 314 316 321 335 333 346 351 342 334 351 1 346 12 58 44 61 65 58 43 51 82 79 77 76 122 140 148 151 149 149 145 138 133 127 123 128 123 115 99 92 87 85 89
327 329 325 315 303 299 305 313 316 324 328 332 342 330 332 330 2 8 38 59 48 50 52 59 74 81 84 83 100 103 127 140 147 152 152 155 155 147 139 134 129 130 137 131 114 92 93 97 100
318 315 306 303 295 282 298 305 324 337 333 331 329 339 337 344 5 26 20 80 43 41 41 58 76 80 84 98 114 131 140 148 152 155 157 158 161 159 151 141 134 138 152 152 136 116 110 114 113
307 305 305 288 285 297 297 312 310 322 337 340 326 319 332 353 1 13 9 70 32 26 18 18 36 43 59 82 127 151 157 158 157 165 167 168 164 162 161 154 147 145 158 162 158 127 122 131 128
302 299 287 287 282 288 294 299 306 307 316 321 320 313 313 340 335 337 348 11 11 5 359 359 359 5 347 341 210 184 184 180 172 173 175 173 170 170 165 165 155 151 188 162 153 137 138 132 151
289 292 285 279 284 286 288 294 300 302 310 316 317 314 307 318 315 317 332 340 344 354 351 348 355 339 333 324 247 207 214 197 187 177 186 183 182 181 169 179 162 158 169 173 157 154 160 171 158
281 283 281 284 286 286 290 299 297 300 304 314 329 313 317 306 300 301 312 325 333 338 342 341 348 336 327 319 260 242 219 205 201 188 184 201 184 244 204 192 174 180 167 172 181 180 180 188 178
285 284 282 282 282 286 294 297 302 300 302 321 334 319 316 322 284 286 307 313 333 331 335 336 342 334 326 325 308 260 212 189 213 255 256 255 244 254 240 233 215 205 177 159 171 184 188 186 188
290 278 278 279 283 288 303 297 301 303 301 306 323 324 327 328 275 262 299 305 327 329 334 337 340 340 328 323 321 302 200 186 201 217 212 202 191 246 259 266 241 206 184 155 163 176 182 178 192
280 280 282 285 285 289 294 292 294 298 300 297 309 323 331 332 282 248 259 275 300 322 330 339 342 337 328 320 324 349 152 178 185 201 194 202 197 238 270 253 235 224 206 157 146 164 181 183 208
286 277 286 287 291 292 290 289 292 292 292 292 302 312 317 315 287 256 258 280 290 319 326 338 344 340 326 316 331 342 350 48 183 199 201 216 223 263 279 241 238 231 210 174 145 140 177 221 223
280 286 288 289 289 288 288 291 289 290 292 292 299 304 305 301 283 248 247 259 281 304 318 334 341 336 320 313 317 324 333 43 167 192 205 216 222 214 241 232 244 225 219 173 157 156 177 223 225
282 287 289 290 289 288 289 287 289 289 294 288 296 299 297 295 290 264 254 264 254 290 309 326 335 330 316 313 317 318 309 294 240 198 197 197 215 228 231 241 238 217 222 194 162 185 191 221 226
293 294 294 294 292 291 288 289 290 293 294 290 291 291 293 293 291 288 258 247 238 282 296 320 333 326 319 317 317 316 310 295 249 202 183 202 213 231 229 216 228 228 224 219 190 188 215 219 225
293 289 293 294 294 291 296 291 289 294 293 289 283 282 286 285 287 263 243 229 231 267 295 316 331 330 320 316 319 321 318 304 265 213 181 181 200 209 214 223 238 225 220 213 203 202 214 227 226
290 291 289 300 300 299 293 289 300 303 298 290 281 277 283 276 281 279 280 265 259 272 282 315 327 338 322 317 321 327 330 318 226 222 179 179 194 217 219 232 230 222 220 217 212 208 209 216 226
287 284 290 291 295 296 295 295 304 313 310 297 290 284 279 276 275 273 272 264 259 265 277 302 330 339 334 325 332 340 349 347 289 230 235 209 195 201 213 224 227 218 221 214 211 202 217 226 235
285 288 291 290 298 298 293 292 297 303 304 301 295 284 274 263 252 269 274 265 265 258 262 281 314 342 350 344 348 350 359 357 44 201 237 256 255 196 218 219 224 228 216 216 207 204 229 231 234
286 287 286 286 290 288 285 288 296 302 302 298 285 273 266 254 256 266 277 265 254 251 257 225 282 51 25 2 349 358 9 33 76 38 131 268 246 198 220 228 216 216 214 209 203 206 223 232 229
285 284 282 285 292 293 291 287 301 297 294 291 269 265 257 249 252 259 272 264 233 226 228 225 234 125 103 6 7 358 45 90 114 81 106 342 189 231 218 220 217 216 219 196 192 197 209 237 216
286 284 281 283 289 293 290 275 289 281 281 275 249 257 252 247 250 257 266 249 240 217 202 204 171 137 106 42 39 17 58 79 92 81 355 29 78 227 215 214 210 214 212 206 202 203 196 230 225
286 291 288 289 296 299 316 301 308 310 275 270 272 265 243 246 252 260 264 246 204 218 217 206 170 131 108 65 39 67 78 103 129 116 80 81 90 255 209 226 221 225 229 222 219 216 214 236 222
286 293 292 294 296 297 305 309 316 319 279 291 269 247 246 249 259 260 213 250 253 235 217 205 175 124 88 78 74 78 99 118 115 132 122 98 98 125 190 227 228 225 229 227 213 218 227 230 226
288 291 291 294 299 300 310 304 320 309 285 286 281 255 254 258 255 255 253 249 243 214 207 217 189 149 100 60 79 100 103 98 100 127 142 118 98 255 195 208 225 235 236 227 223 218 228 233 233
285 291 296 299 300 303 317 319 305 290 283 285 277 258 257 260 251 255 249 235 201 187 189 201 195 174 111 86 72 70 76 94 101 117 128 140 133 196 206 203 227 224 238 239 241 228 229 237 243
289 291 297 294 300 311 324 318 307 309 287 289 285 261 259 259 248 248 254 249 226 203 204 196 192 177 125 119 93 44 50 74 93 99 104 135 147 153 177 205 212 237 227 229 242 243 238 241 253
291 291 299 295 300 304 313 317 302 303 288 291 277 269 266 262 254 245 253 255 244 224 218 210 196 162 117 127 123 82 22 44 51 69 83 62 100 118 151 168 196 196 202 236 245 252 241 241 249
286 304 298 303 305 307 317 302 289 294 283 286 279 269 271 268 263 257 253 255 245 233 223 216 209 170 92 110 109 86 59 15 37 44 79 93 89 103 129 154 168 227 226 235 253 253 257 249 252
287 296 302 309 307 312 319 303 317 302 295 289 279 274 273 271 264 260 252 253 246 236 216 204 205 249 5 37 59 43 30 30 14 38 57 89 106 107 110 130 144 157 179 192 218 238 252 242 244
283 289 301 302 308 315 293 279 320 331 316 302 282 280 280 275 273 260 251 252 246 228 219 220 224 275 320 319 314 306 313 338 358 39 44 49 90 113 121 118 118 139 160 175 188 202 222 223 229